Weather History for Du Bois, PA

Change the Weather History Date:

Sunday, February 17, 2013

  Actual Average Record
Temperature  
Mean Temperature 15 °F 27 °F  
Max Temperature 20 °F 35 °F 58 °F (2006)
Min Temperature 10 °F 19 °F -11 °F (1973)
Degree Days  
Heating Degree Days 50 38  
Month to date heating degree days 718 674  
Since 1 July heating degree days 4299 4618  
Cooling Degree Days 0 0  
Month to date cooling degree days 0 0  
Year to date cooling degree days 0 0  
Moisture  
Dew Point 7 °F    
Average Humidity 71    
Maximum Humidity 88    
Minimum Humidity 54    
Precipitation  
Precipitation T in 0.08 in 0.39 in (1971)
Month to date precipitation 0.25 1.36  
Sea Level Pressure  
Sea Level Pressure 29.96 in    
Wind  
Wind Speed 11 mph (WNW)    
Max Wind Speed 23 mph    
Max Gust Speed 36 mph    
Visibility 7 miles    
Events Snow    
T = Trace of Precipitation, MM = Missing Value Source: NWS Daily Summary

Daily Weather History Graph

Daily Weather History Graph

Search for Another Location

Airport:

Trip Planner

Search our weather history database for the weather conditions in past years. The results will help you decide how hot, cold, wet, or windy it might be!

Date:

Astronomy

Feb. 17, 2013 Rise Set
Actual Time 7:07 AM EST 5:52 PM EST
Civil Twilight 6:39 AM EST 6:20 PM EST
Nautical Twilight 6:06 AM EST 6:52 PM EST
Astronomical Twilight 5:34 AM EST 7:24 PM EST
Moon 10:54 AM EST (2/17) 12:50 AM EST (2/17)
Length of Visible Light 11h 41m
Length of Day
10h 45m
Waxing Crescent, 49% of the Moon is Illuminated
Feb 17
Waxing Crescent
Feb 17
First Quarter
Feb 25
Full
Mar 4
Last Quarter
Mar 11
New

Hourly Weather History & Observations

Time (EST) Temp. Windchill Dew Point Humidity Pressure Visibility Wind Dir Wind Speed Gust Speed Precip Events Conditions
12:56 AM 12.9 °F - 3.0 °F 65% 29.90 in 10.0 mi Calm Calm - N/A   Partly Cloudy
1:56 AM 14.0 °F 6.5 °F 5.0 °F 67% 29.89 in 10.0 mi North 4.6 mph - N/A   Overcast
2:56 AM 12.9 °F 6.9 °F 5.0 °F 71% 29.89 in 10.0 mi West 3.5 mph - N/A   Scattered Clouds
3:45 AM 12.2 °F 4.3 °F 5.0 °F 73% 29.81 in 10.0 mi WNW 4.6 mph - N/A   Mostly Cloudy
3:56 AM 12.9 °F 5.2 °F 6.1 °F 74% 29.90 in 10.0 mi WNW 4.6 mph - N/A   Overcast
4:56 AM 10.9 °F 2.9 °F 6.1 °F 81% 29.91 in 10.0 mi West 4.6 mph - 0.00 in   Mostly Cloudy
5:03 AM 10.4 °F 0.8 °F 6.8 °F 85% 29.82 in 10.0 mi West 5.8 mph - N/A   Scattered Clouds
5:56 AM 10.0 °F 0.4 °F 7.0 °F 87% 29.92 in 10.0 mi West 5.8 mph - N/A   Clear
6:56 AM 10.0 °F -0.9 °F 7.0 °F 87% 29.93 in 10.0 mi West 6.9 mph - N/A   Clear
7:56 AM 12.0 °F 1.5 °F 9.0 °F 88% 29.94 in 10.0 mi WNW 6.9 mph - N/A   Scattered Clouds
8:09 AM 12.2 °F 1.7 °F 8.6 °F 85% 29.85 in 10.0 mi WNW 6.9 mph - N/A   Mostly Cloudy
8:26 AM 12.2 °F 1.7 °F 8.6 °F 85% 29.86 in 10.0 mi WNW 6.9 mph - N/A   Mostly Cloudy
8:56 AM 14.0 °F 0.5 °F 10.0 °F 84% 29.96 in 7.0 mi NW 11.5 mph 18.4 mph N/A   Overcast
9:49 AM 15.8 °F 1.4 °F 8.6 °F 73% 29.87 in 10.0 mi NW 13.8 mph 18.4 mph N/A   Scattered Clouds
9:56 AM 17.1 °F 3.6 °F 10.0 °F 74% 29.96 in 10.0 mi NNW 12.7 mph - N/A   Mostly Cloudy
10:33 AM 17.6 °F 1.7 °F 6.8 °F 63% 29.88 in 10.0 mi NW 18.4 mph 26.5 mph N/A   Mostly Cloudy
10:54 AM 17.6 °F 3.2 °F 6.8 °F 63% 29.89 in 10.0 mi NW 15.0 mph 24.2 mph N/A   Overcast
10:56 AM 17.1 °F 3.0 °F 7.0 °F 65% 29.98 in 10.0 mi NW 13.8 mph 24.2 mph N/A   Overcast
11:25 AM 17.6 °F 4.3 °F 8.6 °F 68% 29.89 in 2.0 mi NW 12.7 mph 24.2 mph 0.00 in Snow Light Snow
11:37 AM 17.6 °F 2.2 °F 6.8 °F 63% 29.90 in 7.0 mi NW 17.3 mph 24.2 mph 0.00 in   Overcast
11:46 AM 19.4 °F 7.2 °F 6.8 °F 58% 29.90 in 10.0 mi WNW 11.5 mph 23.0 mph 0.00 in   Overcast
11:56 AM 18.0 °F 3.1 °F 3.9 °F 54% 29.99 in 9.0 mi NW 16.1 mph 24.2 mph 0.00 in   Overcast
12:17 PM 17.6 °F 1.7 °F 6.8 °F 63% 29.89 in 1.5 mi WNW 18.4 mph 35.7 mph 0.00 in Snow Light Snow
12:27 PM 17.6 °F 1.7 °F 8.6 °F 68% 29.90 in 0.5 mi NW 18.4 mph 25.3 mph 0.00 in Snow Snow
12:32 PM 15.8 °F 2.1 °F 10.4 °F 79% 29.90 in 0.5 mi WNW 12.7 mph 23.0 mph 0.00 in Snow Snow
12:40 PM 17.6 °F 2.7 °F 8.6 °F 68% 29.89 in 2.5 mi WNW 16.1 mph 24.2 mph 0.00 in Snow Light Snow
12:47 PM 19.4 °F 6.0 °F 8.6 °F 63% 29.89 in 9.0 mi WNW 13.8 mph 24.2 mph 0.00 in   Overcast
12:56 PM 19.9 °F 7.9 °F 8.1 °F 60% 29.98 in 10.0 mi NW 11.5 mph 27.6 mph 0.00 in   Overcast
1:22 PM 17.6 °F 2.2 °F 6.8 °F 63% 29.90 in 1.8 mi NW 17.3 mph 26.5 mph 0.00 in Snow Light Snow
1:34 PM 17.6 °F 6.4 °F 6.8 °F 63% 29.90 in 1.8 mi NW 9.2 mph 20.7 mph 0.00 in Snow Light Snow
1:48 PM 17.6 °F 1.3 °F 10.4 °F 73% 29.90 in 0.5 mi NW 19.6 mph 26.5 mph 0.00 in Snow Snow
1:56 PM 18.0 °F 3.6 °F 10.0 °F 71% 29.99 in 2.5 mi WNW 15.0 mph 27.6 mph 0.00 in Snow Light Snow
2:00 PM 19.4 °F 3.6 °F 8.6 °F 63% 29.90 in 8.0 mi WNW 19.6 mph 27.6 mph 0.00 in   Mostly Cloudy
2:07 PM 19.4 °F 3.2 °F 6.8 °F 58% 29.90 in 10.0 mi WNW 20.7 mph 32.2 mph 0.00 in   Mostly Cloudy
2:16 PM 19.4 °F 2.8 °F 3.2 °F 49% 29.90 in 10.0 mi NW 21.9 mph 34.5 mph 0.00 in   Mostly Cloudy
2:40 PM 17.6 °F 0.5 °F 8.6 °F 68% 29.91 in 1.5 mi WNW 21.9 mph 27.6 mph 0.00 in Snow Light Snow
2:46 PM 15.8 °F -0.2 °F 10.4 °F 79% 29.92 in 0.2 mi NW 17.3 mph 27.6 mph 0.00 in Snow Heavy Snow
2:56 PM 15.1 °F -1.6 °F 10.0 °F 80% 30.02 in 0.2 mi WNW 18.4 mph 31.1 mph 0.00 in Snow Heavy Snow
3:10 PM 15.8 °F 0.3 °F 8.6 °F 73% 29.92 in 0.8 mi WNW 16.1 mph 27.6 mph 0.00 in Snow Light Snow
3:12 PM 15.8 °F 2.1 °F 8.6 °F 73% 29.92 in 1.2 mi WNW 12.7 mph 27.6 mph 0.00 in Snow Light Snow
3:15 PM 17.6 °F 2.7 °F 10.4 °F 73% 29.92 in 3.0 mi WNW 16.1 mph 25.3 mph 0.00 in   Haze
3:26 PM 17.6 °F 1.7 °F 6.8 °F 63% 29.92 in 7.0 mi WNW 18.4 mph 29.9 mph 0.00 in   Mostly Cloudy
3:29 PM 17.6 °F 1.3 °F 6.8 °F 63% 29.92 in 2.5 mi WNW 19.6 mph 29.9 mph 0.00 in   Haze
3:34 PM 15.8 °F 0.3 °F 6.8 °F 68% 29.92 in 1.8 mi WNW 16.1 mph 26.5 mph 0.00 in Snow Light Snow
3:41 PM 15.8 °F -1.5 °F 8.6 °F 73% 29.92 in 2.5 mi WNW 20.7 mph 29.9 mph 0.00 in Snow Light Snow
3:43 PM 15.8 °F -0.2 °F 6.8 °F 68% 29.92 in 3.0 mi NW 17.3 mph 29.9 mph 0.00 in Snow Light Snow
3:56 PM 16.0 °F -0.9 °F 5.0 °F 62% 30.03 in 8.0 mi WNW 19.6 mph 32.2 mph 0.00 in   Mostly Cloudy
4:10 PM 15.8 °F 0.9 °F 6.8 °F 68% 29.94 in 5.0 mi WNW 15.0 mph 27.6 mph N/A   Haze
4:56 PM 15.1 °F 1.1 °F 5.0 °F 64% 30.06 in 10.0 mi WNW 12.7 mph - N/A   Mostly Cloudy
5:26 PM 15.8 °F 0.3 °F 5.0 °F 62% 29.97 in 6.0 mi NW 16.1 mph 21.9 mph N/A   Haze
5:56 PM 12.9 °F -3.4 °F 6.1 °F 74% 30.09 in 6.0 mi WNW 16.1 mph 23.0 mph 0.00 in   Haze
6:43 PM 12.2 °F -3.1 °F 5.0 °F 73% 30.01 in 10.0 mi WNW 13.8 mph 21.9 mph N/A   Scattered Clouds
6:56 PM 12.0 °F -4.0 °F 5.0 °F 73% 30.12 in 10.0 mi WNW 15.0 mph 28.8 mph N/A   Partly Cloudy
7:13 PM 12.2 °F -1.0 °F 5.0 °F 73% 30.02 in 9.0 mi WNW 10.4 mph 21.9 mph N/A   Mostly Cloudy
7:56 PM 12.0 °F -2.7 °F 3.9 °F 70% 30.14 in 10.0 mi WNW 12.7 mph - N/A   Mostly Cloudy
8:06 PM 10.4 °F -6.0 °F 3.2 °F 73% 30.04 in 10.0 mi WNW 15.0 mph 25.3 mph N/A   Partly Cloudy
8:56 PM 10.9 °F -4.1 °F 3.9 °F 73% 30.16 in 10.0 mi WNW 12.7 mph 26.5 mph N/A   Mostly Cloudy
9:18 PM 10.4 °F -5.4 °F 3.2 °F 73% 30.07 in 10.0 mi West 13.8 mph 26.5 mph N/A   Scattered Clouds
9:56 PM 10.0 °F -4.5 °F 3.9 °F 76% 30.18 in 10.0 mi West 11.5 mph - N/A   Clear
10:56 PM 10.9 °F -3.4 °F 3.9 °F 73% 30.20 in 10.0 mi West 11.5 mph - N/A   Mostly Cloudy
11:16 PM 10.4 °F -4.1 °F 3.2 °F 73% 30.10 in 10.0 mi West 11.5 mph - N/A   Mostly Cloudy
11:56 PM 10.0 °F -4.5 °F 3.9 °F 76% 30.21 in 10.0 mi WSW 11.5 mph - N/A   Overcast